• In Belarus
  • List of Countries
  • For 7 days
  • Water Temperature
  • Satellite Maps
  • Weather Map
  • Weather Widgets
  • user-avatar
    Login

    Hourly Weather Sainte-Anne-des-Monts

    Today, 13 November, Tuesday

    Time Temperature Precipitation Wind Pressure Humidity
    00:00 -7°C° 0 mm 5 mps 767 mmHg 87%
    01:00 -8°C° 0 mm 5 mps 767 mmHg 89%
    02:00 -8°C° 0 mm 4 mps 767 mmHg 92%
    03:00 -9°C° 0 mm 4 mps 767 mmHg 92%
    04:00 -9°C° 0 mm 4 mps 767 mmHg 92%
    05:00 -8°C° 0 mm 3 mps 767 mmHg 92%
    06:00 -8°C° 0 mm 3 mps 767 mmHg 90%
    07:00 -7°C° 0 mm 3 mps 767 mmHg 87%
    08:00 -7°C° 0 mm 3 mps 767 mmHg 83%
    09:00 -6°C° 0 mm 3 mps 766 mmHg 79%
    10:00 -3°C° 0 mm 2 mps 766 mmHg 75%
    11:00 -2°C° 0 mm 2 mps 765 mmHg 71%
    12:00 -1°C° 0.2 mm 3 mps 764 mmHg 76%
    13:00 -1°C° 0.2 mm 3 mps 763 mmHg 80%
    14:00 -1°C° 0.2 mm 4 mps 762 mmHg 85%
    15:00 -2°C° 0.6 mm 4 mps 761 mmHg 87%
    16:00 -2°C° 0.6 mm 5 mps 760 mmHg 89%
    17:00 -2°C° 0.6 mm 5 mps 759 mmHg 92%
    18:00 -2°C° 0.8 mm 5 mps 757 mmHg 92%
    19:00 -2°C° 0.8 mm 5 mps 756 mmHg 93%
    20:00 -2°C° 0.8 mm 4 mps 754 mmHg 93%
    21:00 -1°C° 1.3 mm 3 mps 753 mmHg 94%
    22:00 0°C° 1.3 mm 3 mps 751 mmHg 96%
    23:00 +1°C° 1.3 mm 2 mps 749 mmHg 97%

    Tomorrow, 14 November, Wednesday

    Time Temperature Precipitation Wind Pressure Humidity
    00:00 +1°C° 1 mm 2 mps 748 mmHg 97%
    01:00 +1°C° 1 mm 2 mps 746 mmHg 97%
    02:00 0°C° 1 mm 3 mps 745 mmHg 97%
    03:00 -4°C° 0.7 mm 6 mps 745 mmHg 96%
    04:00 -6°C° 0.7 mm 9 mps 744 mmHg 94%
    05:00 -10°C° 0.7 mm 12 mps 744 mmHg 92%
    06:00 -12°C° 0.5 mm 12 mps 745 mmHg 90%
    07:00 -14°C° 0.5 mm 13 mps 745 mmHg 89%
    08:00 -16°C° 0.5 mm 13 mps 746 mmHg 87%
    09:00 -16°C° 0.2 mm 13 mps 746 mmHg 87%
    10:00 -16°C° 0.2 mm 13 mps 747 mmHg 86%
    11:00 -17°C° 0.2 mm 14 mps 747 mmHg 86%
    12:00 -15°C° 0.3 mm 13 mps 747 mmHg 86%
    13:00 -15°C° 0.3 mm 13 mps 748 mmHg 87%
    14:00 -15°C° 0.3 mm 13 mps 748 mmHg 87%
    15:00 -14°C° 0.3 mm 13 mps 749 mmHg 86%
    16:00 -14°C° 0.3 mm 13 mps 750 mmHg 84%
    17:00 -12°C° 0.3 mm 13 mps 751 mmHg 83%
    18:00 -12°C° 0.1 mm 13 mps 753 mmHg 81%
    19:00 -11°C° 0.1 mm 13 mps 754 mmHg 80%
    20:00 -11°C° 0.1 mm 13 mps 755 mmHg 79%
    21:00 -11°C° 0.1 mm 12 mps 756 mmHg 78%
    22:00 -11°C° 0.1 mm 12 mps 757 mmHg 77%
    23:00 -10°C° 0.1 mm 12 mps 759 mmHg 76%

    Day after tomorrow, 15 November, Thursday

    Time Temperature Precipitation Wind Pressure Humidity
    00:00 -11°C° 0.1 mm 12 mps 760 mmHg 77%
    01:00 -11°C° 0.1 mm 11 mps 761 mmHg 77%
    02:00 -11°C° 0.1 mm 11 mps 763 mmHg 78%
    03:00 -12°C° 0 mm 11 mps 764 mmHg 81%
    04:00 -13°C° 0 mm 10 mps 765 mmHg 84%
    05:00 -13°C° 0 mm 10 mps 766 mmHg 86%
    06:00 -14°C° 0 mm 9 mps 767 mmHg 87%
    07:00 -14°C° 0 mm 9 mps 768 mmHg 88%
    08:00 -13°C° 0 mm 8 mps 768 mmHg 88%
    09:00 -12°C° 0.1 mm 8 mps 769 mmHg 87%
    10:00 -11°C° 0.1 mm 8 mps 769 mmHg 85%
    11:00 -9°C° 0.1 mm 7 mps 770 mmHg 84%
    12:00 -9°C° 0 mm 7 mps 769 mmHg 83%
    13:00 -9°C° 0 mm 6 mps 769 mmHg 82%
    14:00 -7°C° 0 mm 5 mps 769 mmHg 81%
    15:00 -8°C° 0 mm 5 mps 769 mmHg 85%
    16:00 -9°C° 0 mm 4 mps 769 mmHg 89%
    17:00 -10°C° 0 mm 4 mps 769 mmHg 93%
    18:00 -11°C° 0 mm 4 mps 769 mmHg 93%
    19:00 -11°C° 0 mm 4 mps 769 mmHg 94%
    20:00 -12°C° 0 mm 4 mps 770 mmHg 94%
    21:00 -12°C° 0 mm 4 mps 769 mmHg 94%
    22:00 -12°C° 0 mm 3 mps 769 mmHg 94%
    23:00 -12°C° 0 mm 3 mps 769 mmHg 94%

    16 November, Friday

    Time Temperature Precipitation Wind Pressure Humidity
    00:00 -12°C° 0 mm 3 mps 769 mmHg 93%
    01:00 -12°C° 0 mm 3 mps 768 mmHg 91%
    02:00 -12°C° 0 mm 3 mps 768 mmHg 90%
    03:00 -12°C° 0 mm 3 mps 767 mmHg 87%
    04:00 -13°C° 0 mm 3 mps 767 mmHg 85%
    05:00 -13°C° 0 mm 3 mps 766 mmHg 83%
    06:00 -12°C° 0 mm 3 mps 766 mmHg 82%
    07:00 -12°C° 0 mm 3 mps 766 mmHg 82%
    08:00 -12°C° 0 mm 3 mps 765 mmHg 81%
    09:00 -9°C° 0 mm 3 mps 765 mmHg 79%
    10:00 -8°C° 0 mm 3 mps 764 mmHg 78%
    11:00 -7°C° 0 mm 4 mps 764 mmHg 76%
    12:00 -6°C° 0 mm 3 mps 763 mmHg 77%
    13:00 -5°C° 0 mm 3 mps 762 mmHg 77%
    14:00 -5°C° 0 mm 3 mps 761 mmHg 77%
    15:00 -5°C° 0.1 mm 3 mps 760 mmHg 82%
    16:00 -5°C° 0.1 mm 3 mps 759 mmHg 86%
    17:00 -6°C° 0.1 mm 3 mps 759 mmHg 91%
    18:00 -6°C° 0.4 mm 3 mps 758 mmHg 92%
    19:00 -5°C° 0.4 mm 3 mps 757 mmHg 93%
    20:00 -5°C° 0.4 mm 3 mps 756 mmHg 95%
    21:00 -5°C° 0.5 mm 3 mps 756 mmHg 95%
    22:00 -5°C° 0.5 mm 3 mps 755 mmHg 95%
    23:00 -4°C° 0.5 mm 3 mps 754 mmHg 96%

    17 November, Saturday

    Time Temperature Precipitation Wind Pressure Humidity
    00:00 -4°C° 0.6 mm 3 mps 753 mmHg 96%
    01:00 -3°C° 0.6 mm 2 mps 753 mmHg 96%
    02:00 -2°C° 0.6 mm 2 mps 752 mmHg 96%
    03:00 -2°C° 0.6 mm 2 mps 752 mmHg 96%
    04:00 -2°C° 0.6 mm 2 mps 751 mmHg 96%
    05:00 -2°C° 0.6 mm 2 mps 751 mmHg 96%
    06:00 -2°C° 0.3 mm 3 mps 751 mmHg 96%
    07:00 -2°C° 0.3 mm 3 mps 751 mmHg 96%
    08:00 -3°C° 0.3 mm 4 mps 752 mmHg 96%
    09:00 -3°C° 0.1 mm 4 mps 752 mmHg 95%
    10:00 -2°C° 0.1 mm 5 mps 752 mmHg 93%
    11:00 -3°C° 0.1 mm 6 mps 752 mmHg 92%
    12:00 -3°C° 0 mm 6 mps 753 mmHg 91%
    13:00 -2°C° 0 mm 7 mps 753 mmHg 91%
    14:00 -2°C° 0 mm 8 mps 753 mmHg 90%
    15:00 -2°C° 0.1 mm 7 mps 754 mmHg 90%
    16:00 -3°C° 0.1 mm 7 mps 754 mmHg 90%
    17:00 -3°C° 0.1 mm 7 mps 755 mmHg 90%
    18:00 -3°C° 0.1 mm 7 mps 756 mmHg 89%
    19:00 -4°C° 0.1 mm 8 mps 757 mmHg 88%
    20:00 -5°C° 0.1 mm 8 mps 757 mmHg 87%
    21:00 -6°C° 0 mm 7 mps 758 mmHg 87%
    22:00 -8°C° 0 mm 7 mps 759 mmHg 86%
    23:00 -9°C° 0 mm 6 mps 760 mmHg 86%

    18 November, Sunday

    Time Temperature Precipitation Wind Pressure Humidity
    00:00 -10°C° 0 mm 5 mps 760 mmHg 87%
    01:00 -10°C° 0 mm 5 mps 761 mmHg 88%
    02:00 -11°C° 0 mm 5 mps 762 mmHg 89%
    03:00 -11°C° 0 mm 4 mps 762 mmHg 90%
    04:00 -11°C° 0 mm 4 mps 763 mmHg 91%
    05:00 -12°C° 0 mm 4 mps 763 mmHg 91%
    06:00 -12°C° 0 mm 4 mps 764 mmHg 92%
    07:00 -12°C° 0 mm 4 mps 764 mmHg 92%
    08:00 -14°C° 0 mm 4 mps 765 mmHg 93%
    09:00 -11°C° 0 mm 4 mps 765 mmHg 89%
    10:00 -10°C° 0 mm 4 mps 765 mmHg 86%
    11:00 -8°C° 0 mm 4 mps 765 mmHg 82%
    12:00 -8°C° 0 mm 4 mps 765 mmHg 82%
    13:00 -8°C° 0 mm 4 mps 765 mmHg 82%
    14:00 -8°C° 0 mm 4 mps 765 mmHg 82%
    15:00 -9°C° 0 mm 4 mps 765 mmHg 85%
    16:00 -10°C° 0 mm 4 mps 765 mmHg 88%
    17:00 -10°C° 0 mm 3 mps 765 mmHg 91%
    18:00 -10°C° 0 mm 3 mps 765 mmHg 91%
    19:00 -12°C° 0 mm 3 mps 765 mmHg 92%
    20:00 -10°C° 0 mm 2 mps 765 mmHg 93%
    21:00 -12°C° 0 mm 2 mps 765 mmHg 93%
    22:00 -12°C° 0 mm 2 mps 764 mmHg 93%
    23:00 -12°C° 0 mm 2 mps 764 mmHg 93%
    Show more